Location: Prairie State College
(41.5244°N, 87.6382°W)
Time: 08:30:26
(UTC-05:00)

ARGOS Delta rocket - Visible Passes

Search period start: 31 July 2014 00:00
Search period end: 10 August 2014 00:00
Orbit: 636 x 841 km, 96.5° (Epoch: 31 July)

Date Brightness Start Highest point End Pass type
(mag) Time Alt. Az. Time Alt. Az. Time Alt. Az.
31 Jul 6.2 01:25:45 12° E 01:26:54 14° ENE 01:29:03 10° NE visible
31 Jul 3.8 03:05:24 56° WNW 03:05:24 56° WNW 03:09:29 10° NNW visible
01 Aug 4.4 02:20:36 47° ENE 02:20:38 47° ENE 02:24:56 10° N visible
01 Aug 5.5 04:00:15 15° W 04:00:15 15° W 04:02:14 10° NW visible
02 Aug 5.9 01:35:47 17° ENE 01:36:31 18° ENE 01:39:28 10° NNE visible
02 Aug 4.3 03:15:26 40° WNW 03:15:26 40° WNW 03:19:08 10° NNW visible
03 Aug 4.0 02:30:38 61° NE 02:30:38 61° NE 02:34:49 10° N visible
03 Aug 5.8 04:10:17 11° WNW 04:10:17 11° WNW 04:10:56 10° WNW visible
04 Aug 5.6 01:45:49 23° ENE 01:46:08 23° ENE 01:49:40 10° NNE visible
04 Aug 4.7 03:25:28 30° WNW 03:25:28 30° WNW 03:28:44 10° NNW visible
05 Aug 3.9 02:40:40 66° N 02:40:40 66° N 02:44:38 10° N visible
06 Aug 5.3 01:55:51 29° ENE 01:55:51 29° ENE 01:59:45 10° N visible
06 Aug 5.1 03:35:30 23° WNW 03:35:30 23° WNW 03:38:15 10° NW visible
07 Aug 6.4 01:11:02 11° ENE 01:11:49 11° ENE 01:13:16 10° NE visible
07 Aug 4.1 02:50:42 55° NW 02:50:42 55° NW 02:54:25 10° NNW visible
08 Aug 4.9 02:05:53 37° ENE 02:05:53 37° ENE 02:09:45 10° N visible
08 Aug 5.5 03:45:32 18° WNW 03:45:32 18° WNW 03:47:39 10° NW visible
09 Aug 6.1 01:21:04 15° ENE 01:21:25 15° ENE 01:24:01 10° NNE visible
09 Aug 4.4 03:00:44 42° NW 03:00:44 42° NW 03:04:09 10° NNW visible
